Regional Weather Roundup
Issued by NWS Charleston, SC

Current Version | Previous Version | Graphics & Text | Print | Product List | Glossary On
Versions: 1 2 3 4 5 6 7 8 9 10 11 12 13 14 15 16 17 18 19 20 21 22 23 24 25 26 27 28 29 30 31 32 33 34 35 36 37 38 39 40 41 42 43 44 45 46 47 48 49 50
000 ASUS42 KCHS 291812 RWRCHS REGIONAL WEATHER ROUNDUP NATIONAL WEATHER SERVICE CHARLESTON SC 200 PM EDT MON MAY 29 2017 NOTE: "FAIR" INDICATES FEW OR NO CLOUDS BELOW 12,000 FEET WITH NO SIGNIFICANT WEATHER AND/OR OBSTRUCTIONS TO VISIBILITY. NOT ALL STATIONS ARE QUALITY CONTROLLED. USE DATA WITH CAUTION... ESPECIALLY DEWPOINT OBSERVATIONS. SCZ027-030-031-034>040-042>050-291900- ...SOUTHEAST SOUTH CAROLINA... CITY SKY/WX TMP DP RH WIND PRES REMARKS N CHARLESTON MOSUNNY 90 67 46 W13 29.99F HX 93 6HR MIN TEMP: 76; 6HR MAX TEMP: 91; WATERFRONT PRK N/A 87 69 54 SW6 29.98S HX 91 JOHNS ISLAND FAIR 86 73 66 S15 30.00S HX 93 PINOPOLIS N/A 82 72 69 NE5 29.93S MONCKS CORNER FAIR 88 63 42 W5 29.99S SUMMERVILLE FAIR 88 68 51 W7 30.00F HX 91 BEAUFORT MCAS SUNNY 91 70 49 VRB6 30.00F HX 96 6HR MIN TEMP: 77; 6HR MAX TEMP: 91; BEAUFORT ARPT NOT AVBL HILTON HEAD IS SUNNY 86 72 62 SE9 30.02F HX 92 WALTERBORO CLEAR 88 66 48 W7 30.00F HX 90 ALLENDALE FAIR 91 68 46 W8 29.99S HX 95 ...SOUTHERN MIDLANDS AND PEE DEE... CITY SKY/WX TMP DP RH WIND PRES REMARKS GEORGETOWN FAIR 88 64 45 W9 29.99S KINGSTREE FAIR 86 64 48 W8 29.98F ORANGEBURG SUNNY 89 65 44 NW8 29.99F HX 91 6HR MIN TEMP: 74; 6HR MAX TEMP: 89; BARNWELL FAIR 91 68 46 W8 29.99F HX 95 AIKEN FAIR 88 64 45 W14G21 30.04S MANNING FAIR 88 70 55 W20G28 29.99F HX 92 COLUMBIA MOSUNNY 90 64 42 VRB7 29.98F HX 91 6HR MIN TEMP: 72; 6HR MAX TEMP: 91; SUMTER SUNNY 89 66 46 NW7 29.96F HX 91 6HR MIN TEMP: 72; 6HR MAX TEMP: 89; FLORENCE SUNNY 87 65 47 W12 29.98S 6HR MIN TEMP: 72; 6HR MAX TEMP: 87; MYRTLE BEACH MOSUNNY 88 66 48 W10 29.98S HX 90 N MYRTLE BEACH SUNNY 85 70 60 S12 29.97S 6HR MIN TEMP: 74; 6HR MAX TEMP: 87; $$ GAZ063-065-086>088-099>101-113>116-118-119-134>141-150-291900- ...SOUTHEAST GEORGIA... CITY SKY/WX TMP DP RH WIND PRES REMARKS SAVANNAH ARPT MOSUNNY 93 66 40 VRB7 30.01F HX 96 6HR MIN TEMP: 77; 6HR MAX TEMP: 93; HUNTER AAF MOSUNNY 91 74 57 SW7 29.98F HX 101 6HR MIN TEMP: 78; 6HR MAX TEMP: 92; FORT STEWART PTSUNNY 92 66 42 W8 29.99F HX 94 6HR MIN TEMP: 77; 6HR MAX TEMP: 92; STATESBORO SUNNY 91 68 46 W9 30.02S HX 95 SYLVANIA CLEAR 91 71 50 SW7 30.02S HX 98 CLAXTON FAIR 91 70 50 W8 30.02S HX 96 ...CSRA...CENTRAL AND FAR SOUTHEAST GEORGIA... CITY SKY/WX TMP DP RH WIND PRES REMARKS THOMSON MOSUNNY 88 66 48 N12 30.06S HX 90 AUGUSTA-BUSH SUNNY 93 67 42 SW14 29.99S HX 96 6HR MIN TEMP: 76; 6HR MAX TEMP: 93; AUGUSTA-DANIEL SUNNY 91 64 40 W9 30.01S HX 92 SWAINSBORO FAIR 90 66 45 SW7 30.02F HX 92 VIDALIA MOSUNNY 91 68 46 W9 30.02F HX 95 EASTMAN FAIR 91 47 22 SW3 30.04F HAZLEHURST FAIR 92 68 45 CALM 30.02F HX 96 ALMA MOSUNNY 94 65 38 W9 30.02F HX 96 6HR MIN TEMP: 76; 6HR MAX TEMP: 94; WAYCROSS MOSUNNY 94 72 49 SW9 30.02F HX 102 JESUP FAIR 93 61 33 NW5 30.02F HX 93 BAXLEY FAIR 93 70 46 W10 30.01F HX 99 BRUNSWICK SUNNY 91 73 55 W7 30.03S HX 100 SAINT SIMONS SUNNY 91 70 49 SW9 30.02F HX 96 6HR MIN TEMP: 78; 6HR MAX TEMP: 91; $$ SCZ027-028-034-036>038-045-046-048>050-GAZ119-141-291900- ...LAKE AND SUPPLEMENTAL COASTAL OBSERVATIONS... STATION/POSITION TIME TEMP WIND PRES WAVE SWELL AIR SEA DIR/SP/G HT/PER HT/PER/DIR (UTC) (F) (DEG/KT/KT) (MB) (FT/S) (FT/S/D) WINYAH BAY 1645 85 260/ 7 1015.0 LAKE MURRAY 1720 83 250/ 7/ 14 1014.9 ACE BASIN NERRS 1645 88 270/ 2 1016.0 FORT PULASKI 1742 87 190/ 5/ 6 1016.6F SAPELO ISLAND 1700 89 CALM 1017.0 $$ ANZ835-935-AMZ111-154-330-350-352-354-370-450-454-472-291900- ...C-MAN AND BUOY OBSERVATIONS... STATION/POSITION TIME TEMP WIND PRES WAVE SWELL AIR SEA DIR/SP/G HT/PER HT/PER/DIR (UTC) (F) (DEG/KT/KT) (MB) (FT/S) (FT/S/D) BUOY 41004 1750 77 77 220/ 10/ 12 1016.0F 2/ 5 2/190/ 5 BUOY 41008 1650 79 79 190/ 6/ 6 1017.1 2/ 4 2/150/ 4 FOLLY BEACH CMAN 1700 80 200/ 9/ 11 1016.8S CAPERS NEARSHORE 1708 82 79 200/ 12/ 17 1015.6F FRIPP NEARSHORE 1708 80 79 210/ 10/ 12 1016.2S STATION/POSITION TIME TEMP WIND PRES WAVE SWELL AIR SEA DIR/SP/G HT/PER HT/PER/DIR (UTC) (F) (DEG/KT/KT) (MB) (FT/S) (FT/S/D) 5E ST. MARYS GA 1700 81 N/A 1/ 7 FRYING PAN BUOY 1750 76 76 230/ 8/ 10 1015.0F 3/ 5 2/210/ 5 BUOY 41025 1750 76 77 250/ 10/ 12 1014.6R 3/ 6 3/220/ 6 CAPE LOOKOUT NC 1700 80 230/ 6/ 8 1014.2R BUOY 41002 1750 78 77 220/ 16/ 17 1016.8R 3/ 5 2/120/ 8 BUOY 41010 1750 82 80 210/ 4/ 6 1018.4F 2/ 5 2/210/ 5 ST AUGUSTINE FL 1800 79 79 120/ 9/ 10 1018.4F $$

USA.gov is the U.S. government's official web portal to all federal, state and local government web resources and services.